Location: Clinton NY
(43.0598°N, 75.3602°W)
Time: 04:01:41
(UTC-04:00)

Iridium 11 - Visible Passes

Search period start: 29 August 2014 00:00
Search period end: 08 September 2014 00:00
Orbit: 776 x 779 km, 86.4° (Epoch: 28 August)

Date Brightness Start Highest point End Pass type
(mag) Time Alt. Az. Time Alt. Az. Time Alt. Az.
29 Aug 7.3 00:10:01 27° NNE 00:10:01 27° NNE 00:12:19 10° N visible
29 Aug 8.1 01:50:29 12° NW 01:50:29 12° NW 01:51:10 10° NW visible
29 Aug 7.5 23:36:36 21° NNE 23:36:36 21° NNE 23:38:31 10° NNE visible
30 Aug 7.8 01:17:04 18° NW 01:17:04 18° NW 01:18:49 10° NNW visible
30 Aug 7.8 23:03:11 15° NE 23:03:11 15° NE 23:04:21 10° NNE visible
31 Aug 7.6 00:43:40 23° NNW 00:43:40 23° NNW 00:45:48 10° N visible
01 Sep 7.4 00:10:14 26° N 00:10:14 26° N 00:12:26 10° N visible
01 Sep 7.5 23:36:49 23° NNE 23:36:49 23° NNE 23:38:49 10° NNE visible
02 Sep 8.1 01:17:17 14° NW 01:17:17 14° NW 01:18:20 10° NNW visible
02 Sep 7.6 23:03:23 18° NNE 23:03:23 18° NNE 23:04:53 10° NNE visible
03 Sep 7.8 00:43:51 19° NNW 00:43:51 19° NNW 00:45:38 10° NNW visible
03 Sep 7.9 22:29:57 12° NE 22:29:57 12° NE 22:30:28 10° NE visible
04 Sep 7.6 00:10:25 24° NNW 00:10:25 24° NNW 00:12:27 10° N visible
04 Sep 7.5 23:36:58 24° N 23:36:58 24° N 23:38:59 10° N visible
05 Sep 7.5 23:03:31 20° NNE 23:03:31 20° NNE 23:05:15 10° NNE visible
06 Sep 8.1 00:43:59 15° NW 00:43:59 15° NW 00:45:18 10° NNW visible
06 Sep 7.7 22:30:04 15° NE 22:30:04 15° NE 22:31:10 10° NNE visible
07 Sep 7.8 00:10:32 21° NNW 00:10:32 21° NNW 00:12:22 10° NNW visible
07 Sep 7.6 23:37:04 24° N 23:37:04 24° N 23:39:03 10° N visible
